Torna al catalogo

SL-6 R/B(2)

AttivoHEO
NORAD 19557·ROCKET BODY·🇷🇺 Russia

Lanciato Oct 3, 1988 da Plesetsk Cosmodrome

Loading…

Prossimi Passaggi (prossime 24 ore)

TLE

In scadenzaSource: Space-Track

Epoca: Aug 28, 2026, 08:30 UTC

1 19557U 88092D   26240.35486000 -.00000062  00000-0  00000+0 0  9992
2 19557  69.3146  95.5627 5698424  36.9075 134.3541  2.04133198282510

Traccia SL-6 R/B(2) in tempo reale con AllMySat

Download on the App Store